Weather History for KINW - August, 2013

Change the Weather History Date:

Friday, August 2, 2013

  Actual Average Record
Temperature  
Mean Temperature 73 °F 78 °F  
Max Temperature 83 °F 93 °F 103 °F (1979)
Min Temperature 63 °F 63 °F 48 °F (1921)
Degree Days  
Heating Degree Days 0 0  
Month to date heating degree days 0 0  
Since 1 July heating degree days 0 0  
Cooling Degree Days 8 13  
Month to date cooling degree days 22 26  
Year to date cooling degree days 920 743  
Growing Degree Days 23 (Base 50)    
Moisture  
Dew Point 59 °F    
Average Humidity 66    
Maximum Humidity 87    
Minimum Humidity 45    
Precipitation  
Precipitation T in 0.04 in 0.90 in (1920)
Month to date precipitation 0.83 0.08  
Year to date precipitation 3.95 3.41  
Sea Level Pressure  
Sea Level Pressure 29.97 in    
Wind  
Wind Speed 9 mph (SSE)    
Max Wind Speed 30 mph    
Max Gust Speed 38 mph    
Visibility 10 miles    
Events Rain    
T = Trace of Precipitation, MM = Missing Value Source: NWS Daily Summary

Daily Weather History Graph

Daily Weather History Graph

Search for Another Location

Airport or City:

Trip Planner

Search our weather history database for the weather conditions in past years. The results will help you decide how hot, cold, wet, or windy it might be!

Date:

Astronomy

Aug. 02, 2013 Rise Set
Actual Time 5:33 AM MST 7:24 PM MST
Civil Twilight 5:05 AM MST 7:52 PM MST
Nautical Twilight 4:31 AM MST 8:25 PM MST
Astronomical Twilight 3:56 AM MST 9:01 PM MST
Moon 1:58 AM MST (8/2) 4:23 PM MST (8/2)
Length of Visible Light 14h 46m
Length of Day
13h 51m
Waning Crescent, 15% of the Moon is Illuminated
Aug 2
Waning Crescent
Aug 6
New
Aug 14
First Quarter
Aug 20
Full
Aug 28
Last Quarter

Hourly Weather History & Observations

Time (MST) Temp. Heat Index Dew Point Humidity Pressure Visibility Wind Dir Wind Speed Gust Speed Precip Events Conditions
12:56 AM 69.1 °F - 62.1 °F 78% 29.95 in 10.0 mi ESE 3.5 mph - N/A   Partly Cloudy
1:56 AM 66.0 °F - 62.1 °F 87% 29.94 in 10.0 mi SW 3.5 mph - N/A   Partly Cloudy
2:56 AM 64.9 °F - 61.0 °F 87% 29.95 in 10.0 mi SW 3.5 mph - N/A   Clear
3:56 AM 64.0 °F - 60.1 °F 87% 29.94 in 10.0 mi SW 4.6 mph - N/A   Clear
4:56 AM 64.0 °F - 61.0 °F 90% 29.94 in 10.0 mi Calm Calm - N/A   Clear
5:56 AM 64.9 °F - 59.0 °F 81% 29.95 in 10.0 mi ESE 4.6 mph - N/A   Clear
6:56 AM 68.0 °F - 61.0 °F 78% 29.96 in 10.0 mi ESE 5.8 mph - N/A   Clear
7:56 AM 72.0 °F - 63.0 °F 73% 29.97 in 10.0 mi ESE 6.9 mph - N/A   Partly Cloudy
8:56 AM 77.0 °F - 60.1 °F 56% 29.97 in 10.0 mi East 5.8 mph - N/A   Clear
9:56 AM 80.1 °F 80.7 °F 59.0 °F 48% 29.96 in 10.0 mi ESE 4.6 mph - N/A   Partly Cloudy
10:56 AM 81.0 °F 81.1 °F 57.9 °F 45% 29.95 in 10.0 mi NE 3.5 mph - N/A   Clear
11:56 AM 79.0 °F - 59.0 °F 50% 29.94 in 10.0 mi ESE 3.5 mph - N/A   Partly Cloudy
12:56 PM 77.0 °F - 62.1 °F 60% 29.94 in 10.0 mi SSW 9.2 mph - N/A   Clear
1:56 PM 79.0 °F - 60.1 °F 52% 29.92 in 10.0 mi Calm Calm - N/A   Partly Cloudy
2:56 PM 75.9 °F - 57.9 °F 54% 29.94 in 10.0 mi South 21.9 mph 27.6 mph N/A   Scattered Clouds
3:56 PM 70.0 °F - 57.9 °F 65% 29.95 in 10.0 mi South 28.8 mph 35.7 mph N/A   Scattered Clouds
4:56 PM 68.0 °F - 57.0 °F 68% 29.97 in 10.0 mi South 26.5 mph 34.5 mph 0.00 in Rain Light Rain
5:56 PM 72.0 °F - 54.0 °F 53% 29.94 in 10.0 mi South 18.4 mph 27.6 mph 0.00 in   Scattered Clouds
6:56 PM 71.1 °F - 55.9 °F 59% 29.99 in 10.0 mi NW 15.0 mph 24.2 mph N/A   Mostly Cloudy
7:03 PM 71.6 °F - 55.4 °F 57% 30.18 in 10.0 mi WSW 13.8 mph 24.2 mph N/A   Mostly Cloudy
7:56 PM 69.1 °F - 57.9 °F 68% 29.98 in 10.0 mi SSW 6.9 mph - N/A   Scattered Clouds
8:56 PM 69.1 °F - 55.9 °F 63% 30.00 in 10.0 mi ESE 12.7 mph - N/A   Mostly Cloudy
9:56 PM 66.0 °F - 57.0 °F 73% 30.02 in 10.0 mi ESE 9.2 mph - N/A   Partly Cloudy
10:56 PM 66.0 °F - 57.9 °F 75% 30.00 in 10.0 mi SSE 6.9 mph - N/A   Clear
11:56 PM 64.9 °F - 57.9 °F 78% 30.00 in 10.0 mi SSE 5.8 mph - N/A   Clear